Location: Poughquag
(41.6090°N, 73.6820°W)
Time: 22:01:16
(UTC-05:00)

N. Korean satellite - Pass Details

Date: 01 February 2021
Orbit: 451 x 503 km, 97.2° (Epoch: 24 February)

Event Time Altitude Azimuth Distance (km) Brightness Sun altitude
Rises 06:01:13 0° 359° (N) 2,481 10.0 -12.5°
Reaches altitude 10° 06:03:28 10° 347° (NNW) 1,597 8.9 -12.1°
Maximum altitude 06:06:21 26° 289° (WNW) 927 7.4 -11.5°
Drops below altitude 10° 06:09:13 10° 231° (SW) 1,580 8.8 -11.0°
Sets 06:11:26 0° 218° (SW) 2,447 9.9 -10.6°
